Location: Callanans Corners
(42.5326°N, 73.8846°W)
Time: 15:43:29
(UTC+00:00)

Meteor 2-5 Rocket - Pass Details

Date: 06 October 2022
Orbit: 833 x 911 km, 81.2° (Epoch: 28 November)

Event Time Altitude Azimuth Distance (km) Brightness Sun altitude
Rises 23:05:30 0° 358° (N) 3,392 6.9 -7.7°
Reaches altitude 10° 23:08:09 10° 7° (N) 2,452 6.1 -8.2°
Maximum altitude 23:13:11 35° 72° (ENE) 1,331 4.3 -9.1°
Drops below altitude 10° 23:18:12 10° 138° (SE) 2,450 5.7 -10.0°
Sets 23:20:49 0° 147° (SSE) 3,388 6.5 -10.5°
